Regional Weather Roundup
Issued by NWS

Home | Current Version | Previous Version | Text Only | Print | Product List | Glossary On
Versions: 1 2 3 4 5 6 7 8 9 10 11 12 13 14 15 16 17 18 19 20 21 22 23 24 25 26 27 28 29 30 31 32 33 34 35 36 37 38 39 40 41 42 43 44 45 46 47 48 49 50
000
ASUS43 KLOT 280712
RWRIL

ILLINOIS REGIONAL WEATHER ROUNDUP
NATIONAL WEATHER SERVICE CHICAGO/ROMEOVILLE IL
200 AM CDT TUE APR 28 2015

NOTE: "FAIR" INDICATES FEW OR NO CLOUDS BELOW 12,000 FEET WITH NO
SIGNIFICANT WEATHER AND/OR OBSTRUCTIONS TO VISIBILITY.

* THESE STATIONS ARE NOT UNDER NWS QUALITY CONTROL. THEY ALSO MAY NOT
  REPORT WEATHER SUCH AS PRECIPITATION OR FOG.

ILZ001-002-007-009-015-016-024-280800-
NORTHWEST ILLINOIS

CITY           SKY/WX    TMP DP  RH WIND       PRES   REMARKS
MOLINE         CLEAR     41  36  82 CALM      30.12S
STERLING*      CLEAR     41  36  81 CALM      30.15R
SAVANNA*       CLEAR     42  36  80 E6        30.13S
$$

ILZ003-004-008-010-011-017-018-280800-
NORTH CENTRAL ILLINOIS

CITY           SKY/WX    TMP DP  RH WIND       PRES   REMARKS
ROCKFORD       CLEAR     41  34  76 CALM      30.17R
FREEPORT*      CLEAR     36  32  84 CALM      30.16S
ROCHELLE*      CLEAR     38  34  84 CALM      30.14S
DE KALB*       CLEAR     40  32  73 CALM      30.15R
PERU*          CLEAR     41  35  79 CALM      30.14S
$$

ILZ005-006-012>014-019>023-280800-
NORTHEAST ILLINOIS

CITY           SKY/WX    TMP DP  RH WIND       PRES   REMARKS
CHICAGO-OHARE  CLEAR     39  33  79 CALM      30.13R
CHICAGO-MIDWAY CLEAR     41  32  70 W3        30.13R
AURORA         CLEAR     34  30  85 W5        30.14R WCI  30
LANSING*       CLEAR     36  33  88 CALM      30.13S
JOLIET*        CLEAR     36  33  91 CALM      30.14R
WAUKEGAN       CLEAR     39  32  76 NW3       30.12S
DUPAGE AIRPORT CLEAR     37  32  82 NW3       30.12S
KANKAKEE*      CLEAR     38  36  91 CALM      30.13R
WHEELING       CLEAR     38  32  79 CALM      30.15R
MORRIS*        CLEAR     38  33  84 CALM      30.10S
ROMEOVILLE*    CLEAR     40  33  77 NW3       30.13S
NORTHERLY ISL    N/A     43  35  73 NE7         N/A
$$

LMZ740>746-280800-
SOUTHERN LAKE MICHIGAN

STATION/POSITION SKY/WX   TEMP    WIND        PRES    VSBY  WAVE
                          AIR SEA DIR/SP/G                  HT/PER
                          (F)     (DEG/KT/KT) (MB)    (MI)  (FT/S)
HARRISON CRIB              42     330/  7/  7   N/A
BURNHAM HARBOR             42     360/  7/  7   N/A
CALUMET HARBOR             40     340/  3/  3   N/A
BURNS HARBOR               42      20/  4/  5 1020.7R
MICHIGAN CITY              41      10/  2/  3   N/A
MICHIGAN CITY 6N           40 46  340/  6/  6   N/A           2/ 5
$$

ILZ025>027-034>036-040-047-049-050-058-095>099-280800-
WEST-CENTRAL ILLINOIS

CITY           SKY/WX    TMP DP  RH WIND       PRES   REMARKS
QUINCY         CLEAR     49  35  58 CALM      30.12R
GALESBURG*     CLEAR     44  36  75 S3        30.13S
MACOMB*        CLEAR     44  38  78 CALM      30.15R
JACKSONVILLE*  CLEAR     47  37  68 SE3       30.12S
PITTSFIELD*    CLEAR     47  38  71 CALM      30.13S
$$

ILZ028>032-037-038-041>044-048-051>054-059>061-280800-
CENTRAL ILLINOIS

CITY           SKY/WX    TMP DP  RH WIND       PRES   REMARKS
PONTIAC        CLEAR     37  34  90 CALM      30.14R
BLOOMINGTON    CLEAR     40  33  76 NE6       30.12F
DECATUR        CLEAR     39  33  79 NE7       30.10S WCI  34
PEORIA         CLEAR     44  36  73 CALM      30.13S
LACON*         CLEAR     38  35  88 CALM      30.13S
LINCOLN*       CLEAR     42  36  79 CALM      30.12S
SPRINGFIELD    CLEAR     42  35  76 NE6       30.12S
TAYLORVILLE    CLEAR     37  34  87 NW5       30.10F WCI  34
$$

ILZ033-039-045-046-055>057-062-063-280800-
EAST-CENTRAL ILLINOIS

CITY           SKY/WX    TMP DP  RH WIND       PRES   REMARKS
CHAMPAIGN      CLEAR     37  32  82 N8        30.10S WCI  31
DANVILLE*      CLEAR     36  33  90 N6        30.07F WCI  31
RANTOUL*       CLEAR     40  34  79 NW3       30.11S
MATTOON        CLEAR     38  33  82 N6        30.08F WCI  33
PARIS*         CLEAR     40  36  84 CALM      30.10S
$$

ILZ079-100>102-280800-
SOUTHWEST ILLINOIS

CITY           SKY/WX    TMP DP  RH WIND       PRES   REMARKS
ALTON          CLEAR     44  39  83 CALM      30.11S
BELLEVILLE     CLEAR     41  41 100 W2        30.09S
CAHOKIA*       CLEAR     45  39  79 CALM      30.11R
SPARTA*        CLEAR     44  38  78 NE5       30.10F
$$

ILZ064>066-069>071-074>076-080>082-084>086-088>090-092>094-280800-
SOUTH-CENTRAL ILLINOIS

CITY           SKY/WX    TMP DP  RH WIND       PRES   REMARKS
CARBONDALE     CLEAR     48  37  65 NE6       30.08S
CAIRO*         PTCLDY    50  40  68 NE8       30.06S
EFFINGHAM*     CLEAR     44  32  62 CALM      30.11R
MARION         CLEAR     48  39  71 CALM      30.08S
MT. VERNON     CLEAR     39  34  81 CALM      30.09S
CENTRALIA*     CLEAR     38  35  89 W3        30.08F
SALEM*         CLEAR     43  38  82 CALM      30.09S
METROPOLIS*    CLEAR     49  40  71 NE3       30.05F
$$

ILZ067-068-072-073-078-083-087-091-280800-
SOUTHEAST ILLINOIS

CITY           SKY/WX    TMP DP  RH WIND       PRES   REMARKS
LAWRENCEVILLE  CLEAR     44  38  79 NE3       30.08S
FLORA*         CLEAR     41  38  86 CALM      30.09S
FAIRFIELD*     CLEAR     44  38  81 CALM      30.07S
HARRISBURG*    CLEAR     46  38  76 N3        30.08R
ROBINSON*      CLEAR     42  36  79 N3        30.09S
CARMI*         CLEAR     44  36  73 N7        30.07S
$$

ABBREVIATIONS USED IN REMARKS
   TC - TEMPERATURE IN CELSIUS
  WCI - WIND CHILL INDEX
   HX - HEAT INDEX
  VSB - VISIBILITY
$$




USA.gov is the U.S. government's official web portal to all federal, state and local government web resources and services.